Year,Month,Day,Hour,Minute,Value (Times are PST for temperature in C)
2010,07,30,09,01,18.30
2010,07,30,09,02,18.30
2010,07,30,09,03,18.30
2010,07,30,09,04,18.40
2010,07,30,09,05,18.40
2010,07,30,09,06,18.50
2010,07,30,09,07,18.60
2010,07,30,09,08,18.60
2010,07,30,09,09,18.60
2010,07,30,09,10,18.60
2010,07,30,09,11,18.60
2010,07,30,09,12,18.60
2010,07,30,09,13,18.60
2010,07,30,09,14,18.60
2010,07,30,09,15,18.60
2010,07,30,09,16,18.60
2010,07,30,09,17,18.70
2010,07,30,09,18,18.70
2010,07,30,09,19,18.70
2010,07,30,09,20,18.70
2010,07,30,09,21,18.70
2010,07,30,09,22,18.80
2010,07,30,09,23,18.80
2010,07,30,09,24,18.90
2010,07,30,09,25,19.00
2010,07,30,09,26,19.20
2010,07,30,09,27,19.30
2010,07,30,09,28,19.40
2010,07,30,09,29,19.40
2010,07,30,09,30,19.50
2010,07,30,09,31,19.50
2010,07,30,09,32,19.50
2010,07,30,09,33,19.60
2010,07,30,09,34,19.60
2010,07,30,09,35,19.60
2010,07,30,09,36,19.60
2010,07,30,09,37,19.60
2010,07,30,09,38,19.70
2010,07,30,09,39,19.70
2010,07,30,09,40,19.70
2010,07,30,09,41,19.80
2010,07,30,09,42,19.80
2010,07,30,09,43,19.90
2010,07,30,09,44,19.90
2010,07,30,09,45,20.00
2010,07,30,09,46,20.00
2010,07,30,09,47,20.00
2010,07,30,09,48,20.00
2010,07,30,09,49,20.10
2010,07,30,09,50,20.10
2010,07,30,09,51,20.10
2010,07,30,09,52,20.00
2010,07,30,09,53,20.10
2010,07,30,09,54,20.10
2010,07,30,09,55,20.10
2010,07,30,09,56,20.10
2010,07,30,09,57,20.10
2010,07,30,09,58,20.10
2010,07,30,09,59,20.10
2010,07,30,10,00,20.10
2010,07,30,10,01,20.20
2010,07,30,10,02,20.20
2010,07,30,10,03,20.20
2010,07,30,10,04,20.30
2010,07,30,10,05,20.30
2010,07,30,10,06,20.40
2010,07,30,10,07,20.50
2010,07,30,10,08,20.60
2010,07,30,10,09,20.70
2010,07,30,10,10,20.70
2010,07,30,10,11,20.80
2010,07,30,10,12,20.90
2010,07,30,10,13,20.90
2010,07,30,10,14,20.90
2010,07,30,10,15,20.90
2010,07,30,10,16,20.90
2010,07,30,10,17,20.90
2010,07,30,10,18,20.90
2010,07,30,10,19,20.80
2010,07,30,10,20,20.80
2010,07,30,10,21,20.70
2010,07,30,10,22,20.70
2010,07,30,10,23,20.70
2010,07,30,10,24,20.70
2010,07,30,10,25,20.70
2010,07,30,10,26,20.80
2010,07,30,10,27,20.70
2010,07,30,10,28,20.60
2010,07,30,10,29,20.50
2010,07,30,10,30,20.50
2010,07,30,10,31,20.50
2010,07,30,10,32,20.50
2010,07,30,10,33,20.40
2010,07,30,10,34,20.40
2010,07,30,10,35,20.40
2010,07,30,10,36,20.40
2010,07,30,10,37,20.50
2010,07,30,10,38,20.50
2010,07,30,10,39,20.60
2010,07,30,10,40,20.70
2010,07,30,10,41,20.70
2010,07,30,10,42,20.80
2010,07,30,10,43,20.80
2010,07,30,10,44,20.80
2010,07,30,10,45,20.80
2010,07,30,10,46,20.80
2010,07,30,10,47,20.90
2010,07,30,10,48,21.00
2010,07,30,10,49,21.00
2010,07,30,10,50,21.00
2010,07,30,10,51,20.90
2010,07,30,10,52,20.90
2010,07,30,10,53,20.90
2010,07,30,10,54,20.80
2010,07,30,10,55,20.80
2010,07,30,10,56,20.90
2010,07,30,10,57,20.90
2010,07,30,10,58,21.00
2010,07,30,10,59,21.00
2010,07,30,11,00,21.00
2010,07,30,11,01,21.00
2010,07,30,11,02,21.10
2010,07,30,11,03,21.20
2010,07,30,11,04,21.30
2010,07,30,11,05,21.40
2010,07,30,11,06,21.50
2010,07,30,11,07,21.60
2010,07,30,11,08,21.70
2010,07,30,11,09,21.80
2010,07,30,11,10,21.80
2010,07,30,11,11,21.90
2010,07,30,11,12,22.00
2010,07,30,11,13,22.00
2010,07,30,11,14,22.00
2010,07,30,11,15,22.00
2010,07,30,11,16,22.00
2010,07,30,11,17,22.00
2010,07,30,11,18,21.90
2010,07,30,11,19,21.80
2010,07,30,11,20,21.80
2010,07,30,11,21,21.90
2010,07,30,11,22,21.90
2010,07,30,11,23,21.90
2010,07,30,11,24,21.90
2010,07,30,11,25,21.90
2010,07,30,11,26,21.90
2010,07,30,11,27,21.80
2010,07,30,11,28,21.80
2010,07,30,11,29,21.80
2010,07,30,11,30,21.80
2010,07,30,11,31,21.80
2010,07,30,11,32,21.80
2010,07,30,11,33,21.70
2010,07,30,11,34,21.70
2010,07,30,11,35,21.70
2010,07,30,11,36,21.70
2010,07,30,11,37,21.70
2010,07,30,11,38,21.80
2010,07,30,11,39,21.80
2010,07,30,11,40,21.80
2010,07,30,11,41,21.80
2010,07,30,11,42,21.60
2010,07,30,11,43,21.50
2010,07,30,11,44,21.40
2010,07,30,11,45,21.30
2010,07,30,11,46,21.30
2010,07,30,11,47,21.30
2010,07,30,11,48,21.40
2010,07,30,11,49,21.50
2010,07,30,11,50,21.60
2010,07,30,11,51,21.60
2010,07,30,11,52,21.70
2010,07,30,11,53,21.80
2010,07,30,11,54,21.80
2010,07,30,11,55,21.80
2010,07,30,11,56,21.90
2010,07,30,11,57,21.90
2010,07,30,11,58,21.90
2010,07,30,11,59,21.90
2010,07,30,12,00,21.90
2010,07,30,12,01,21.90
2010,07,30,12,02,21.90
2010,07,30,12,03,21.90
2010,07,30,12,04,21.90
2010,07,30,12,05,21.90
2010,07,30,12,06,21.80
2010,07,30,12,07,21.80
2010,07,30,12,08,21.80
2010,07,30,12,09,21.80
2010,07,30,12,10,21.70
2010,07,30,12,11,21.70
2010,07,30,12,12,21.60
2010,07,30,12,13,21.50
2010,07,30,12,14,21.40
2010,07,30,12,15,21.40
2010,07,30,12,16,21.30
2010,07,30,12,17,21.30
2010,07,30,12,18,21.40
2010,07,30,12,19,21.40
2010,07,30,12,20,21.50
2010,07,30,12,21,21.50
2010,07,30,12,22,21.60
2010,07,30,12,23,21.50
2010,07,30,12,24,21.50
2010,07,30,12,25,21.50
2010,07,30,12,26,21.60
2010,07,30,12,27,21.60
2010,07,30,12,28,21.70
2010,07,30,12,29,21.70
2010,07,30,12,30,21.80
2010,07,30,12,31,21.80
2010,07,30,12,32,21.90
2010,07,30,12,33,22.00
2010,07,30,12,34,22.10
2010,07,30,12,35,22.30
2010,07,30,12,36,22.30
2010,07,30,12,37,22.40
2010,07,30,12,38,22.40
2010,07,30,12,39,22.40
2010,07,30,12,40,22.40
2010,07,30,12,41,22.40
2010,07,30,12,42,22.40
2010,07,30,12,43,22.40
2010,07,30,12,44,22.50
2010,07,30,12,45,22.50
2010,07,30,12,46,22.50
2010,07,30,12,47,22.50
2010,07,30,12,48,22.50
2010,07,30,12,49,22.60
2010,07,30,12,50,22.70
2010,07,30,12,51,22.80
2010,07,30,12,52,22.80
2010,07,30,12,53,22.80
2010,07,30,12,54,22.80
2010,07,30,12,55,22.80
2010,07,30,12,56,22.80
2010,07,30,12,57,22.80
2010,07,30,12,58,22.80
2010,07,30,12,59,22.80
2010,07,30,13,00,22.80
2010,07,30,13,01,22.80
2010,07,30,13,02,22.70
2010,07,30,13,03,22.70
2010,07,30,13,04,22.70
2010,07,30,13,05,22.60
2010,07,30,13,06,22.70
2010,07,30,13,07,22.70
2010,07,30,13,08,22.80
2010,07,30,13,09,22.80
2010,07,30,13,10,22.80
2010,07,30,13,11,22.80
2010,07,30,13,12,22.90
2010,07,30,13,13,22.90
2010,07,30,13,14,22.90
2010,07,30,13,15,23.00
2010,07,30,13,16,23.10
2010,07,30,13,17,23.10
2010,07,30,13,18,23.20
2010,07,30,13,19,23.20
2010,07,30,13,20,23.10
2010,07,30,13,21,23.10
2010,07,30,13,22,23.10
2010,07,30,13,23,23.20
2010,07,30,13,24,23.20
2010,07,30,13,25,23.20
2010,07,30,13,26,23.30
2010,07,30,13,27,23.30
2010,07,30,13,28,23.40
2010,07,30,13,29,23.40
2010,07,30,13,30,23.40
2010,07,30,13,31,23.40
2010,07,30,13,32,23.40
2010,07,30,13,33,23.50
2010,07,30,13,34,23.50
2010,07,30,13,35,23.50
2010,07,30,13,36,23.40
2010,07,30,13,37,23.30
2010,07,30,13,38,23.20
2010,07,30,13,39,23.10
2010,07,30,13,40,23.00
2010,07,30,13,41,22.90
2010,07,30,13,42,22.90
2010,07,30,13,43,22.80
2010,07,30,13,44,22.70
2010,07,30,13,45,22.70
2010,07,30,13,46,22.70
2010,07,30,13,47,22.60
2010,07,30,13,48,22.50
2010,07,30,13,49,22.40
2010,07,30,13,50,22.40
2010,07,30,13,51,22.30
2010,07,30,13,52,22.40
2010,07,30,13,53,22.40
2010,07,30,13,54,22.50
2010,07,30,13,55,22.60
2010,07,30,13,56,22.60
2010,07,30,13,57,22.50
2010,07,30,13,58,22.40
2010,07,30,13,59,22.30
2010,07,30,14,00,22.20
2010,07,30,14,01,22.20
2010,07,30,14,02,22.20
2010,07,30,14,03,22.30
2010,07,30,14,04,22.30
2010,07,30,14,05,22.30
2010,07,30,14,06,22.20
2010,07,30,14,07,22.00
2010,07,30,14,08,21.90
2010,07,30,14,09,21.90
2010,07,30,14,10,21.90
2010,07,30,14,11,22.00
2010,07,30,14,12,22.00
2010,07,30,14,13,22.00
2010,07,30,14,14,22.10
2010,07,30,14,15,22.30
2010,07,30,14,16,22.40
2010,07,30,14,17,22.30
2010,07,30,14,18,22.40
2010,07,30,14,19,22.50
2010,07,30,14,20,22.50
2010,07,30,14,21,22.50
2010,07,30,14,22,22.60
2010,07,30,14,23,22.60
2010,07,30,14,24,22.60
2010,07,30,14,25,22.60
2010,07,30,14,26,22.60
2010,07,30,14,27,22.60
2010,07,30,14,28,22.60
2010,07,30,14,29,22.60
2010,07,30,14,30,22.60
2010,07,30,14,31,22.70
2010,07,30,14,32,22.80
2010,07,30,14,33,22.90
2010,07,30,14,34,23.00
2010,07,30,14,35,23.10
2010,07,30,14,36,23.00
2010,07,30,14,37,22.90
2010,07,30,14,38,22.80
2010,07,30,14,39,22.80
2010,07,30,14,40,22.90
2010,07,30,14,41,22.90
2010,07,30,14,42,22.90
2010,07,30,14,43,22.90
2010,07,30,14,44,22.90
2010,07,30,14,45,22.90
2010,07,30,14,46,23.00
2010,07,30,14,47,23.10
2010,07,30,14,48,23.10
2010,07,30,14,49,23.10
2010,07,30,14,50,23.10
2010,07,30,14,51,23.20
2010,07,30,14,52,23.20
2010,07,30,14,53,23.20
2010,07,30,14,54,23.20
2010,07,30,14,55,23.30
2010,07,30,14,56,23.30
2010,07,30,14,57,23.40
2010,07,30,14,58,23.50
2010,07,30,14,59,23.50
2010,07,30,15,00,23.30
2010,07,30,15,01,23.10
2010,07,30,15,02,22.90
2010,07,30,15,03,22.80
2010,07,30,15,04,22.80
2010,07,30,15,05,22.80
2010,07,30,15,06,22.70
2010,07,30,15,07,22.70
2010,07,30,15,08,22.70
2010,07,30,15,09,22.70
2010,07,30,15,10,22.70
2010,07,30,15,11,22.70
2010,07,30,15,12,22.70
2010,07,30,15,13,22.70
2010,07,30,15,14,22.80
2010,07,30,15,15,22.80
2010,07,30,15,16,22.60
2010,07,30,15,17,22.40
2010,07,30,15,18,22.30
2010,07,30,15,19,22.30
2010,07,30,15,20,22.30
2010,07,30,15,21,22.30
2010,07,30,15,22,22.40
2010,07,30,15,23,22.40
2010,07,30,15,24,22.30
2010,07,30,15,25,22.30
2010,07,30,15,26,22.20
2010,07,30,15,27,22.10
2010,07,30,15,28,21.90
2010,07,30,15,29,21.80
2010,07,30,15,30,21.70
2010,07,30,15,31,21.50
2010,07,30,15,32,21.40
2010,07,30,15,33,21.30
2010,07,30,15,34,21.30
2010,07,30,15,35,21.30
2010,07,30,15,36,21.30
2010,07,30,15,37,21.40
2010,07,30,15,38,21.40
2010,07,30,15,39,21.40
2010,07,30,15,40,21.40
2010,07,30,15,41,21.30
2010,07,30,15,42,21.30
2010,07,30,15,43,21.20
2010,07,30,15,44,21.20
2010,07,30,15,45,21.10
2010,07,30,15,46,21.00
2010,07,30,15,47,20.90
2010,07,30,15,48,20.80
2010,07,30,15,49,20.80
2010,07,30,15,50,20.70
2010,07,30,15,51,20.70
2010,07,30,15,52,20.70
2010,07,30,15,53,20.70
2010,07,30,15,54,20.80
2010,07,30,15,55,20.80
2010,07,30,15,56,20.80
2010,07,30,15,57,20.90
2010,07,30,15,58,20.90
2010,07,30,15,59,21.00
2010,07,30,16,00,21.10
2010,07,30,16,01,21.10
2010,07,30,16,02,21.20
2010,07,30,16,03,21.20
2010,07,30,16,04,21.20
2010,07,30,16,05,21.10
2010,07,30,16,06,21.10
2010,07,30,16,07,20.90
2010,07,30,16,08,20.80
2010,07,30,16,09,20.80
2010,07,30,16,10,20.70
2010,07,30,16,11,20.60
2010,07,30,16,12,20.50
2010,07,30,16,13,20.40
2010,07,30,16,14,20.40
2010,07,30,16,15,20.40
2010,07,30,16,16,20.40
2010,07,30,16,17,20.40
2010,07,30,16,18,20.50
2010,07,30,16,19,20.50
2010,07,30,16,20,20.60
2010,07,30,16,21,20.60
2010,07,30,16,22,20.60
2010,07,30,16,23,20.70
2010,07,30,16,24,20.80
2010,07,30,16,25,20.80
2010,07,30,16,26,20.80
2010,07,30,16,27,20.70
2010,07,30,16,28,20.60
2010,07,30,16,29,20.60
2010,07,30,16,30,20.50
2010,07,30,16,31,20.40
2010,07,30,16,32,20.40
2010,07,30,16,33,20.40
2010,07,30,16,34,20.40
2010,07,30,16,35,20.40
2010,07,30,16,36,20.40
2010,07,30,16,37,20.50
2010,07,30,16,38,20.60
2010,07,30,16,39,20.60
2010,07,30,16,40,20.70
2010,07,30,16,41,20.70
2010,07,30,16,42,20.80
2010,07,30,16,43,20.80
2010,07,30,16,44,20.90
2010,07,30,16,45,20.90
2010,07,30,16,46,20.90
2010,07,30,16,47,20.90
2010,07,30,16,48,20.90
2010,07,30,16,49,20.90
2010,07,30,16,50,20.80
2010,07,30,16,51,20.70
2010,07,30,16,52,20.60
2010,07,30,16,53,20.50
2010,07,30,16,54,20.40
2010,07,30,16,55,20.30
2010,07,30,16,56,20.20
2010,07,30,16,57,20.10
2010,07,30,16,58,20.00
2010,07,30,16,59,19.90
2010,07,30,17,00,19.80
2010,07,30,17,01,19.70
2010,07,30,17,02,19.70
2010,07,30,17,03,19.60
2010,07,30,17,04,19.60
2010,07,30,17,05,19.60
2010,07,30,17,06,19.70
2010,07,30,17,07,19.70
2010,07,30,17,08,19.80
2010,07,30,17,09,19.80
2010,07,30,17,10,19.80
2010,07,30,17,11,19.80
2010,07,30,17,12,19.80
2010,07,30,17,13,19.90
2010,07,30,17,14,19.90
2010,07,30,17,15,20.00
2010,07,30,17,16,20.00
2010,07,30,17,17,20.10
2010,07,30,17,18,20.10
2010,07,30,17,19,20.00
2010,07,30,17,20,20.00
2010,07,30,17,21,20.00
2010,07,30,17,22,20.00
2010,07,30,17,23,19.90
2010,07,30,17,24,19.90
2010,07,30,17,25,19.90
2010,07,30,17,26,19.80
2010,07,30,17,27,19.80
2010,07,30,17,28,19.70
2010,07,30,17,29,19.60
2010,07,30,17,30,19.60
2010,07,30,17,31,19.50
2010,07,30,17,32,19.50
2010,07,30,17,33,19.60
2010,07,30,17,34,19.60
2010,07,30,17,35,19.60
2010,07,30,17,36,19.60
2010,07,30,17,37,19.60
2010,07,30,17,38,19.60
2010,07,30,17,39,19.60
2010,07,30,17,40,19.60
2010,07,30,17,41,19.60
2010,07,30,17,42,19.60
2010,07,30,17,43,19.60
2010,07,30,17,44,19.60
2010,07,30,17,45,19.70
2010,07,30,17,46,19.70
2010,07,30,17,47,19.80
2010,07,30,17,48,19.90
2010,07,30,17,49,19.90
2010,07,30,17,50,19.90
2010,07,30,17,51,20.00
2010,07,30,17,52,20.00
2010,07,30,17,53,20.00
2010,07,30,17,54,20.00
2010,07,30,17,55,20.00
2010,07,30,17,56,19.90
2010,07,30,17,57,19.90
2010,07,30,17,58,19.90
2010,07,30,17,59,19.90
2010,07,30,18,00,19.90
2010,07,30,18,01,19.90
2010,07,30,18,02,19.80
2010,07,30,18,03,19.60
2010,07,30,18,04,19.50
2010,07,30,18,05,19.30
2010,07,30,18,06,19.20
2010,07,30,18,07,19.20
2010,07,30,18,08,19.20
2010,07,30,18,09,19.20
2010,07,30,18,10,19.20
2010,07,30,18,11,19.30
2010,07,30,18,12,19.30
2010,07,30,18,13,19.30
2010,07,30,18,14,19.30
2010,07,30,18,15,19.20
2010,07,30,18,16,19.10
2010,07,30,18,17,19.00
2010,07,30,18,18,18.90
2010,07,30,18,19,18.80
2010,07,30,18,20,18.80
2010,07,30,18,21,18.70
2010,07,30,18,22,18.70
2010,07,30,18,23,18.70
2010,07,30,18,24,18.70
2010,07,30,18,25,18.70
2010,07,30,18,26,18.60
2010,07,30,18,27,18.60
2010,07,30,18,28,18.60
2010,07,30,18,29,18.60
2010,07,30,18,30,18.60
2010,07,30,18,31,18.60
2010,07,30,18,32,18.70
2010,07,30,18,33,18.70
2010,07,30,18,34,18.70
2010,07,30,18,35,18.70
2010,07,30,18,36,18.70
2010,07,30,18,37,18.70
2010,07,30,18,38,18.70
2010,07,30,18,39,18.60
2010,07,30,18,40,18.50
2010,07,30,18,41,18.50
2010,07,30,18,42,18.40
2010,07,30,18,43,18.30
2010,07,30,18,44,18.30
2010,07,30,18,45,18.30
2010,07,30,18,46,18.20
2010,07,30,18,47,18.20
2010,07,30,18,48,18.20
2010,07,30,18,49,18.20
2010,07,30,18,50,18.20
2010,07,30,18,51,18.20
2010,07,30,18,52,18.20
2010,07,30,18,53,18.20
2010,07,30,18,54,18.20
2010,07,30,18,55,18.20
2010,07,30,18,56,18.20
2010,07,30,18,57,18.20
2010,07,30,18,58,18.20
2010,07,30,18,59,18.20
2010,07,30,19,00,18.20
2010,07,30,19,01,18.20
